{"data":{"norad_id":48309,"epoch":"2026-09-20T00:44:41.663328Z","epoch_age_seconds":74173,"freshness":"FRESH","line1":"1 48309U 21036AK  26263.03103777  .00000811  00000+0  37898-4 0  9991","line2":"2 48309  53.1567 264.4651 0001278  89.6389 270.4759 15.31697536297998","mean_motion":15.31697536,"eccentricity":0.0001278,"inclination_deg":53.1567,"raan_deg":264.4651,"arg_perigee_deg":89.6389,"mean_anomaly_deg":270.4759,"bstar":3.7898e-5,"rev_number":29799,"period_min":94.013339197537,"perigee_km":469.87205287259,"apogee_km":471.62262770997,"semimajor_km":6848.8843402913,"source":"CELESTRAK","updated_at":"2026-09-20T09:00:38.933571Z"}}